Regional Weather Roundup
Issued by NWS

Home | Current Version | Previous Version | Text Only | Print | Product List | Glossary Off
Versions: 1 2 3 4 5 6 7 8 9 10 11 12 13 14 15 16 17 18 19 20 21 22 23 24 25 26 27 28 29 30 31 32 33 34 35 36 37 38 39 40 41 42 43 44 45 46 47 48 49 50

000
ASUS43 KMKX 171920
RWRWI

WISCONSIN REGIONAL WEATHER ROUNDUP
NATIONAL WEATHER SERVICE MILWAUKEE/SULLIVAN WI
100 PM CST TUE JAN 17 2017

NOTE: "FAIR" INDICATES FEW OR NO CLOUDS BELOW 12,000 FEET WITH NO
SIGNIFICANT WEATHER AND/OR OBSTRUCTIONS TO VISIBILITY.

WIZ001-002-006>008-014>016-023>028-172000-
NORTHWEST WISCONSIN

CITY           SKY/WX    TMP DP  RH WIND       PRES   REMARKS
SUPERIOR ARPT  CLOUDY    32  29  88 CALM      29.94F FOG
ASHLAND        SUNNY     36  29  75 CALM      29.92F
HAYWARD        SUNNY     41  24  51 CALM      29.89F
SIREN          SUNNY     38  25  60 NW6       29.93F WCI  33
CUMBERLAND     CLOUDY    34  30  86 NW3       29.91F
RICE LAKE      CLOUDY    36  30  80 CALM      29.92F
CHETEK         CLOUDY    35  32  90 NW3       29.91F
LADYSMITH      CLOUDY    38  33  83 NW6       29.91S WCI  33
EAU CLAIRE     CLOUDY    36  35  96 NW6       29.90S FOG     WCI  31
MENOMONIE      CLOUDY    36  36 100 NW7       29.91S WCI  30
NEW RICHMOND   SUNNY     33  28  81 NW6       29.93F WCI  27
OSCEOLA        SUNNY     34  26  74 NW5       29.97F WCI  30
$$

WIZ003>005-009-010-017-018-172000-
NORTH CENTRAL WISCONSIN

CITY           SKY/WX    TMP DP  RH WIND       PRES   REMARKS
MANITOWISH WTR CLOUDY    38  28  68 NW6       29.86F WCI  33
ARBOR VITAE    PTSUNNY   39  31  72 N5        29.85F
WOODRUFF       PTSUNNY   39  31  72 N5        29.85F
RHINELANDER    CLOUDY    39  32  76 N6        29.85R WCI  35
EAGLE RIVER    CLOUDY    38  30  72 CALM      29.84S
LAND O LAKES   CLOUDY    39  28  63 CALM      29.87S
PHILLIPS       SUNNY     38  33  80 N3        29.87S
TOMAHAWK       CLOUDY    39  32  76 CALM      29.86R
MEDFORD        CLOUDY    35  32  90 N3        29.85S
MERRILL        CLOUDY    36  35  93 NE3         N/A
$$

WIZ029-030-035-036-043>047-172000-
CENTRAL WISCONSIN

CITY           SKY/WX    TMP DP  RH WIND       PRES   REMARKS
WAUSAU         CLOUDY    35  33  92 NE6       29.83F FOG     WCI  30
MOSINEE        CLOUDY    34  34 100 N6        29.85S FOG     WCI  29
MARSHFIELD     CLOUDY    35  32  88 N5        29.84S FOG     WCI  31
STEVENS POINT  CLOUDY    32  32 100 N3        29.85S FOG
WAUPACA        CLOUDY    36  34  92 CALM      29.85S FOG
WAUTOMA        CLOUDY    36  35  96 N5        29.85F WCI  32
WISC RAPIDS    CLOUDY    35  34  96 N6        29.86S WCI  30
CAMP DOUGLAS   DRIZZLE   34  34 100 W3        29.86F FOG
$$

WIZ011>013-019>022-031-037>040-048>050-172000-
NORTHEAST WISCONSIN

CITY           SKY/WX    TMP DP  RH WIND       PRES   REMARKS
ANTIGO         CLOUDY    33  33 100 NE7       29.83F FOG     WCI  26
SHAWANO        CLOUDY    35  33  93 CALM      29.85S FOG
OCONTO         CLOUDY    33  33  97 N6        29.84S WCI  28
STURGEON BAY   CLOUDY    36  35  96 N8        29.82F FOG     WCI  30
GREEN BAY      CLOUDY    36  35  96 N6        29.83F FOG     WCI  31
MANITOWOC      MIX PCPN  35  34  96 NW7       29.82S VSB 1   WCI  29
APPLETON         N/A     34  34 100 N7        29.82S FOG     WCI  28
CLINTONVILLE   CLOUDY    34  32  93 N6        29.84S FOG     WCI  29
OSHKOSH        MIX PCPN  34  32  92 NW6       29.83F VSB 1   WCI  29
$$

WIZ032>034-041-042-053>061-172000-
SOUTHWEST WISCONSIN

CITY           SKY/WX    TMP DP  RH WIND       PRES   REMARKS
LA CROSSE      LGT SNOW  35  33  92 NW6       29.90S FOG     WCI  30
SPARTA         DRIZZLE   33  33 100 W3        29.89S
VIROQUA        CLOUDY    33  33 100 CALM      29.86F
BOSCOBEL       CLOUDY    35  33  92 W3        29.89F FOG
PRAIRIE DU CHI CLOUDY    34  33  96 W3        29.89F FOG
PLATTEVILLE    CLOUDY    34  34 100 W9        29.88S WCI  26
$$

WIZ056-057-062-063-064-067-068-172000-
SOUTH CENTRAL WISCONSIN

CITY           SKY/WX    TMP DP  RH WIND       PRES   REMARKS
REEDSBURG      LGT RAIN  33  33 100 NW3       29.86F
BARABOO/DELLS  CLOUDY    33  33  99 CALM      29.84F FOG
LONE ROCK      CLOUDY    35  33  92 W7        29.88F FOG     WCI  29
MINERAL POINT  FOG       34  34 100 W10       29.85S VSB 1/4 WCI  26
MADISON        FOG       34  33  96 NW7       29.84F VSB 1   WCI  28
MIDDLETON      CLOUDY    36  36 100 NW8       29.85F WCI  29
WATERTOWN      CLOUDY    34  34 100 NW5       29.83F FOG     WCI  29
MONROE         CLOUDY    34  34 100 W12       29.85S FOG     WCI  25
JANESVILLE     CLOUDY    37  37 100 NW8       29.85S FOG     WCI  31
$$

WIZ051-052-058>065-066-070>072-172000-
SOUTHEAST WISCONSIN

CITY           SKY/WX    TMP DP  RH WIND       PRES   REMARKS
MILWAUKEE      CLOUDY    39  36  89 NW10      29.82F WCI  32
WAUKESHA       CLOUDY    34  34 100 W9        29.83F FOG     WCI  26
MILWAUKEE/TIMM CLOUDY    36  34  93 W8        29.83F WCI  29
RACINE           N/A    N/A N/A N/A MISG      29.84S
KENOSHA        CLOUDY    37  35  92 W12       29.83R FOG     WCI  29
FOND DU LAC    FOG       34  32  92 NW6       29.84S VSB 1   WCI  29
SHEBOYGAN      FOG       34  33  96 NW8       29.82S VSB 1/2 WCI  27
WEST BEND      CLOUDY    34  34 100 NW7       29.82S FOG     WCI  28
JUNEAU         FOG       33  32  98 NW6       29.83F VSB 1   WCI  27
$$

LSZ147-162-172000-
LAKE SUPERIOR

STATION/POSITION TIME  TEMP    WIND        PRES    WAVE
                       AIR SEA DIR/SP/G            HT/PER
                 (UTC) (F)     (DEG/KT/KT) (MB)    (FT/S)
DEVILS ISLAND    1900   33     340/  3/  4 1014.0F
PORT WING        1840   32     260/  3/  7 1013.9F
SAXON HARBOR     1840   34     360/  1/  3 1013.5F
$$

LMZ867-665-643>646-172000-
LAKE MICHIGAN

STATION/POSITION TIME  TEMP    WIND        PRES    WAVE
                       AIR SEA DIR/SP/G            HT/PER
                 (UTC) (F)     (DEG/KT/KT) (MB)    (FT/S)
NORTHPORT PIER   1900   34      50/  9/ 22 1010.2
SISTER BAY       1850   35     360/  8/ 14   N/A
KEWAUNEE LAKESHO 1854   36     360/  5/  7 1009.2F
SHEBOYGAN LAKESH 1900   35     280/  7/  8 1010.0F
PORT WASHINGTON  1840   37     290/  6/  9 1010.8F
MILWAUKEE LAKESH 1900   38     280/  8/ 10   N/A
KENOSHA   LAKESH 1900   37     310/  7/ 11 1010.2
$$

TC  - TEMPERATURE IN CELSIUS
VSB - VISIBILITY IN STATUTE MILES
WCI - WIND CHILL INDEX
HX  - HEAT INDEX




USA.gov is the U.S. government's official web portal to all federal, state and local government web resources and services.